Zurück zum Katalog

COSMOS 2251 DEB

AktivLEO
NORAD 34037·DEBRIS·🇷🇺 Russia

Gestartet Jun 16, 1993 von Plesetsk Cosmodrome

Loading…

Nächste Überflüge (nächste 24 Stunden)

TLE

AktuellSource: Space-Track

Epoche: Sep 14, 2026, 08:58 UTC

1 34037U 93036HY  26257.37387384  .00000727  00000-0  25831-3 0  9991
2 34037  74.0479 265.6217 0055475 249.0620 110.4591 14.35352623916717

Verfolge COSMOS 2251 DEB in Echtzeit mit AllMySat

Download on the App Store